This is the latest recevied weather packets stored in our database for station/object IK3MZS-10. If no packets are shown the sender has not sent any weather packets the latest 10 day(s).
| Time | Temp. | Humidity | Pressure | Rain* | Wind** | Luminosity | Snow |
|---|---|---|---|---|---|---|---|
| 1777438231 | 25° C | 42% | 1017.3 hPa | - | - | - | - |
| 1777434630 | 25° C | 41% | 1017.2 hPa | - | - | - | - |
| 1777431030 | 25° C | 40% | 1016.9 hPa | - | - | - | - |
| 1777427430 | 25° C | 41% | 1016.5 hPa | - | - | - | - |
| 1777423829 | 24.44° C | 42% | 1016.5 hPa | - | - | - | - |
| 1777420229 | 24.44° C | 42% | 1016.6 hPa | - | - | - | - |
| 1777416629 | 24.44° C | 42% | 1017 hPa | - | - | - | - |
| 1777413028 | 24.44° C | 42% | 1016.9 hPa | - | - | - | - |
| 1777409428 | 25.56° C | 40% | 1016.7 hPa | - | - | - | - |
| 1777405828 | 25.56° C | 39% | 1016.5 hPa | - | - | - | - |
| 1777402228 | 25.56° C | 39% | 1015.7 hPa | - | - | - | - |
| 1777398627 | 25.56° C | 39% | 1015.2 hPa | - | - | - | - |
| 1777395027 | 25.56° C | 41% | 1014.9 hPa | - | - | - | - |
| 1777391427 | 26.11° C | 43% | 1014.9 hPa | - | - | - | - |
| 1777387827 | 26.11° C | 53% | 1015.2 hPa | - | - | - | - |
| 1777384227 | 25.56° C | 43% | 1015.5 hPa | - | - | - | - |
| 1777380626 | 25.56° C | 52% | 1016.1 hPa | - | - | - | - |
| 1777377026 | 25° C | 42% | 1016.3 hPa | - | - | - | - |
| 1777373426 | 25° C | 41% | 1016.7 hPa | - | - | - | - |
| 1777369826 | 25° C | 41% | 1017.1 hPa | - | - | - | - |
| 1777366226 | 25° C | 41% | 1017.3 hPa | - | - | - | - |
| 1777362625 | 25° C | 41% | 1017.2 hPa | - | - | - | - |
| 1777359025 | 25° C | 41% | 1017.1 hPa | - | - | - | - |
| 1777355425 | 25° C | 42% | 1016.9 hPa | - | - | - | - |
| 1777351825 | 25° C | 42% | 1016.6 hPa | - | - | - | - |
* Rain since midnight (hover to see other rain measurements)
** Current wind speed in m/s (hover to see current wind gust speed)